Regional Weather Roundup
Issued by NWS

Home | Current Version | Previous Version | Graphics & Text | Print | Product List | Glossary On
Versions: 1 2 3 4 5 6 7 8 9 10 11 12 13 14 15 16 17 18 19 20 21 22 23 24 25 26 27 28 29 30 31 32 33 34 35 36 37 38 39 40 41 42 43 44 45 46 47 48 49 50
000
ASUS43 KMKX 232100
RWRWI

WISCONSIN REGIONAL WEATHER ROUNDUP
NATIONAL WEATHER SERVICE MILWAUKEE/SULLIVAN WI
400 PM CDT FRI JUN 23 2017

NOTE: "FAIR" INDICATES FEW OR NO CLOUDS BELOW 12,000 FEET WITH NO
SIGNIFICANT WEATHER AND/OR OBSTRUCTIONS TO VISIBILITY.

WIZ001-002-006>008-014>016-023>028-232200-
NORTHWEST WISCONSIN

CITY           SKY/WX    TMP DP  RH WIND       PRES   REMARKS
SUPERIOR ARPT  NOT AVBL
ASHLAND        CLOUDY    71  49  45 W14G29    29.71R
HAYWARD        PTSUNNY   68  48  48 VRB6      29.74S
SIREN          MOSUNNY   69  48  47 NW16G22   29.77F
CUMBERLAND     PTSUNNY   68  46  45 NW17G24   29.77F
RICE LAKE      CLOUDY    68  49  50 W14G23    29.78F
CHETEK         PTSUNNY   69  52  55 W12G18    29.76S
LADYSMITH      CLOUDY    68  50  53 W17G23    29.76S
EAU CLAIRE     NOT AVBL
MENOMONIE      PTSUNNY   70  51  51 W15G21    29.76F
NEW RICHMOND   PTSUNNY   70  48  46 NW13G23   29.79S
OSCEOLA        CLOUDY    70  50  49 NW13G20   29.81S
$$

WIZ003>005-009-010-017-018-232200-
NORTH CENTRAL WISCONSIN

CITY           SKY/WX    TMP DP  RH WIND       PRES   REMARKS
MANITOWISH WTR PTSUNNY   67  49  52 W13G22    29.70S
ARBOR VITAE    MOSUNNY   69  51  52 W15G22    29.70R
WOODRUFF       MOSUNNY   69  51  52 W15G22    29.70R
RHINELANDER    PTSUNNY   68  48  48 W20G35    29.71R
EAGLE RIVER    PTSUNNY   65  46  48 W12G20    29.69S
LAND O LAKES   PTSUNNY   65  46  49 W15G21    29.70S
PHILLIPS       CLOUDY    65  48  53 NW10G16   29.73R
TOMAHAWK       NOT AVBL
MEDFORD        CLOUDY    65  52  62 NW10G20   29.73S
MERRILL        CLOUDY    67  52  59 NW7G16    29.71S
$$

WIZ029-030-035-036-043>047-232200-
CENTRAL WISCONSIN

CITY           SKY/WX    TMP DP  RH WIND       PRES   REMARKS
WAUSAU         CLOUDY    68  50  52 W15       29.69S
MOSINEE        PTSUNNY   72  52  49 W21       29.72S
MARSHFIELD     PTSUNNY   67  50  54 W17G24    29.73S
STEVENS POINT  CLOUDY    67  50  53 NW13G23   29.73R
WAUPACA        PTSUNNY   77  51  39 W13G20    29.70R
WAUTOMA        CLOUDY    72  54  53 NW17G25   29.71R
WISC RAPIDS    LGT RAIN  70  53  54 W14G23    29.74R
CAMP DOUGLAS   PTSUNNY   70  54  56 W12G18    29.75R
$$

WIZ011>013-019>022-031-037>040-048>050-232200-
NORTHEAST WISCONSIN

CITY           SKY/WX    TMP DP  RH WIND       PRES   REMARKS
ANTIGO         PTSUNNY   67  52  57 W15G22    29.70S
SHAWANO        CLOUDY    75  50  40 W12G28    29.66R
OCONTO         PTSUNNY   77  50  38 NW9G16    29.62S
STURGEON BAY     N/A     76  52  43 W14G24      N/A
GREEN BAY      MOSUNNY   76  54  46 W17G24    29.64F
MANITOWOC      NOT AVBL
APPLETON       PTSUNNY   73  46  38 W18G25    29.66S
CLINTONVILLE   CLOUDY    72  46  40 NW17G23   29.67R
OSHKOSH        SUNNY     75  53  46 NW18G26   29.66R
$$

WIZ032>034-041-042-053>061-232200-
SOUTHWEST WISCONSIN

CITY           SKY/WX    TMP DP  RH WIND       PRES   REMARKS
LA CROSSE      CLOUDY    76  55  48 NW14      29.78R
SPARTA         CLOUDY    69  53  56 W15G21    29.78R
VIROQUA        CLOUDY    69  55  60 W13G21    29.79R
BOSCOBEL       CLOUDY    74  53  48 NW13      29.78R
PRAIRIE DU CHI CLOUDY    73  50  44 NW16G24   29.78S
PLATTEVILLE    MOSUNNY   74  55  50 W23G31    29.78R
$$

WIZ056-057-062-063-064-067-068-232200-
SOUTH CENTRAL WISCONSIN

CITY           SKY/WX    TMP DP  RH WIND       PRES   REMARKS
REEDSBURG      PTSUNNY   73  54  51 W17G23    29.74R
BARABOO/DELLS  MOSUNNY   75  51  42 NW18      29.73R
LONE ROCK      NOT AVBL
MINERAL POINT  MOSUNNY   73  52  46 NW15G28   29.76R
MADISON        PTSUNNY   77  52  41 NW10G22   29.70R
MIDDLETON      MOSUNNY   79  54  41 W16G22    29.72R
WATERTOWN      MOSUNNY   77  53  43 W15G23    29.69R
MONROE         CLOUDY    79  46  31 W18G33    29.74R
JANESVILLE     PTSUNNY   79  50  36 W16       29.71R
$$

WIZ051-052-058>065-066-070>072-232200-
SOUTHEAST WISCONSIN

CITY           SKY/WX    TMP DP  RH WIND       PRES   REMARKS
MILWAUKEE      PTSUNNY   82  46  28 W14G22    29.68S HX  80
WAUKESHA       MOSUNNY   75  48  38 W13G22    29.70S
MILWAUKEE/TIMM PTSUNNY   79  45  29 W20       29.69S
RACINE         SUNNY     81  47  30 NW15      29.70S HX  80
KENOSHA        SUNNY     80  52  37 W12       29.70S HX  80
FOND DU LAC    MOSUNNY   76  50  40 W14G23    29.67R
SHEBOYGAN      MOSUNNY   78  54  43 W15G29    29.66S
WEST BEND      MOSUNNY   77  50  38 W9G22     29.68R
JUNEAU         MOSUNNY   76  52  42 W8G18     29.70R
$$

LSZ147-162-232200-
LAKE SUPERIOR

STATION/POSITION TIME  TEMP    WIND        PRES    WAVE
                       AIR SEA DIR/SP/G            HT/PER
                 (UTC) (F)     (DEG/KT/KT) (MB)    (FT/S)
W MID LAKE BUOY  1950   48 39  250/ 14/ 16 1003.8F   2/ 4
DEVILS ISLAND    2000   58     260/ 15/ 16 1005.0R
SAXON HARBOR     2040   64     300/  8/ 11 1005.8R
$$

LMZ867-665-643>646-232200-
LAKE MICHIGAN

STATION/POSITION TIME  TEMP    WIND        PRES    WAVE
                       AIR SEA DIR/SP/G            HT/PER
                 (UTC) (F)     (DEG/KT/KT) (MB)    (FT/S)
CHAMBERS ISLAND  2030   75     290/  4/  8 1002.4R
S GREEN BAY BUOY 2030   73     270/ 14/ 17 1003.0R
N MID LAKE BUOY  1950   60 57  190/  8/ 10 1002.8F   1
NORTHPORT PIER   2040   77     280/  5/ 10 1002.0S
KEWAUNEE LAKESHO 2030   78     290/ 10/ 17 1003.0F
SHEBOYGAN LAKESH 2000   76     280/ 19/ 22 1003.5F
PORT WASHINGTON  2040   80     300/ 13/ 18 1005.1S
ATWATER BUOY     1909   72 60  310/ 12/ 14 1005.4F
MILWAUKEE LAKESH 2030   78     280/ 11/ 15   N/A
S MID LAKE BUOY  1950   65 63  250/  4/  6 1005.3F   0
KENOSHA   LAKESH 2000   79     300/ 13/ 18 1005.1
$$

TC  - TEMPERATURE IN CELSIUS
VSB - VISIBILITY IN STATUTE MILES
WCI - WIND CHILL INDEX
HX  - HEAT INDEX




USA.gov is the U.S. government's official web portal to all federal, state and local government web resources and services.